FW2073 Weather Reports


time (UTC)temp
C
wind
direction
speed
KPH
gust
KPH
rain 1hr
cm
rain 24hr
cm
rain mn
cm
humidity
%
barometer
mb
20260509113035 1 200 0.0 0.0 0.00 0.00 0.00 91 1014.5
20260509111531 1 99 0.0 0.0 0.00 0.00 0.00 94 1014.3
20260509110025 0 101 0.0 0.0 0.00 0.00 0.00 98 1014.4
20260509104531 -2 101 0.0 0.0 0.00 0.00 0.00 97 1014.4
20260509103019 -2 101 0.0 0.0 0.00 0.00 0.00 98 1014.3
20260509101517 -3 101 0.0 0.0 0.00 0.00 0.00 98 1014.3
20260509100051 -4 101 0.0 0.0 0.00 0.00 0.00 97 1014.0
20260509094642 -4 101 0.0 0.0 0.00 0.00 0.00 97 1013.9
20260509093038 -4 101 0.0 0.0 0.00 0.00 0.00 97 1013.9
20260509091537 -4 101 0.0 0.0 0.00 0.00 0.00 97 1013.7
20260509090036 -3 101 0.0 0.0 0.00 0.00 0.00 97 1013.7
20260509084535 -3 101 0.0 0.0 0.00 0.00 0.00 97 1013.6
20260509083031 -3 101 0.0 0.0 0.00 0.00 0.00 97 1013.6
20260509081540 -3 101 0.0 0.0 0.00 0.00 0.00 96 1013.6
20260509080029 -3 101 0.0 0.0 0.00 0.00 0.00 96 1013.7
20260509074530 -3 101 0.0 0.0 0.00 0.00 0.00 96 1013.7
20260509073026 -3 101 0.0 0.0 0.00 0.00 0.00 96 1013.6
20260509071523 -3 101 0.0 0.0 0.00 0.00 0.00 96 1013.5
20260509070022 -2 101 0.0 0.0 0.00 0.00 0.00 96 1013.6
20260509064520 -2 101 0.0 0.0 0.00 0.00 0.00 96 1013.4
20260509063019 -2 101 0.0 0.0 0.00 0.00 0.00 96 1013.6
20260509061515 -2 101 0.0 0.0 0.00 0.00 0.00 96 1013.4
20260509060014 -2 101 0.0 0.0 0.00 0.00 0.00 95 1013.3
20260509054519 -2 96 0.0 0.0 0.00 0.00 0.00 95 1013.2
20260509053011 -2 96 0.0 0.0 0.00 0.00 0.00 95 1013.2
20260509051508 -2 96 0.0 0.0 0.00 0.00 0.00 95 1013.1
20260509050008 -1 83 0.0 0.0 0.00 0.00 0.00 95 1013.1
20260509044512 -1 83 0.0 0.0 0.00 0.00 0.00 94 1013.1
20260509043009 -1 83 0.0 0.0 0.00 0.00 0.00 94 1013.0
20260509041504 -1 83 0.0 0.0 0.00 0.00 0.00 94 1013.1
20260509040002 -1 108 0.0 0.0 0.00 0.00 0.00 93 1012.8
20260509034501 0 108 0.0 0.0 0.00 0.00 0.00 93 1012.7
20260509033100 0 108 0.0 0.0 0.00 0.00 0.00 92 1012.5
20260509031601 0 108 0.0 0.0 0.00 0.00 0.00 92 1012.4
20260509030053 0 108 0.0 0.0 0.00 0.00 0.00 91 1012.3
20260509024551 0 108 0.0 0.0 0.00 0.00 0.00 90 1012.1
20260509023057 1 108 0.0 0.0 0.00 0.00 0.00 90 1012.1
20260509021550 1 108 0.0 0.0 0.00 0.00 0.00 89 1012.0
20260509020050 1 94 0.0 0.0 0.00 0.00 0.00 88 1012.0
20260509014545 1 108 0.0 0.0 0.00 0.00 0.00 87 1011.7
20260509013105 2 108 0.0 0.0 0.00 0.00 0.00 85 1011.6
20260509011542 3 108 0.0 0.0 0.00 0.00 0.00 84 1011.4
20260509010040 3 82 0.0 0.0 0.00 0.00 0.00 84 1011.2
20260509004537 3 89 0.0 0.0 0.00 0.00 0.00 82 1011.0
20260509003103 4 90 0.0 0.0 0.00 0.00 0.00 80 1010.8
20260509001535 5 90 0.0 0.0 0.00 0.00 0.00 76 1010.7
20260509000034 5 90 0.0 0.0 0.00 0.00 0.00 73 1010.6
20260508234506 6 90 0.0 0.0 0.00 0.00 0.00 64 1010.5
20260508233002 7 114 0.0 0.0 0.00 0.00 0.00 56 1010.4
20260508231606 8 131 0.0 0.0 0.00 0.00 0.00 54 1010.3
20260508224608 8 108 0.0 4.8 0.00 0.00 0.00 51 1010.2
20260508223057 8 113 0.0 4.8 0.00 0.00 0.00 52 1010.1
20260508221602 9 103 3.2 24.1 0.00 0.00 0.00 49 1010.0
20260508220054 9 106 0.0 14.5 0.00 0.00 0.00 48 1009.9
20260508214553 10 105 0.0 6.4 0.00 0.00 0.00 50 1009.8
20260508213111 9 76 0.0 8.0 0.00 0.00 0.00 50 1009.9
20260508211637 10 122 3.2 14.5 0.00 0.00 0.00 48 1009.6
20260508210038 10 124 0.0 11.3 0.00 0.00 0.00 50 1009.7
20260508204539 9 103 0.0 16.1 0.00 0.00 0.00 53 1009.6
20260508203034 9 96 0.0 22.5 0.00 0.00 0.00 52 1009.4
20260508201533 9 105 0.0 14.5 0.00 0.00 0.00 51 1009.2
20260508200038 9 99 8.0 24.1 0.00 0.00 0.00 50 1009.3
20260508194531 9 102 0.0 22.5 0.00 0.00 0.00 52 1009.6
20260508193056 9 129 4.8 20.9 0.00 0.00 0.00 54 1009.5
20260508191532 8 133 0.0 6.4 0.00 0.00 0.00 54 1009.6
20260508190036 8 92 0.0 22.5 0.00 0.00 0.00 54 1009.6
20260508184529 8 92 0.0 16.1 0.00 0.00 0.00 55 1009.6
20260508183028 8 89 3.2 20.9 0.00 0.00 0.00 55 1009.6
20260508181505 8 89 0.0 11.3 0.00 0.00 0.00 55 1009.6
20260508180002 7 96 0.0 8.0 0.00 0.00 0.00 58 1009.4
20260508174550 7 122 0.0 4.8 0.00 0.00 0.00 59 1009.5
20260508173031 7 127 0.0 8.0 0.00 0.00 0.00 58 1009.6
20260508171530 7 96 1.6 14.5 0.00 0.00 0.00 55 1009.4
20260508170028 7 136 0.0 25.7 0.00 0.00 0.00 56 1009.4
20260508164535 8 75 8.0 30.6 0.00 0.00 0.00 54 1009.2
20260508163030 8 106 3.2 29.0 0.00 0.00 0.00 58 1009.3
20260508161537 8 96 3.2 24.1 0.00 0.00 0.00 57 1009.1
20260508160037 8 115 1.6 22.5 0.00 0.00 0.00 59 1009.3
20260508154518 7 113 8.0 27.4 0.00 0.00 0.00 59 1009.4
20260508153021 7 107 9.7 25.7 0.00 0.00 0.00 63 1009.5
20260508151524 6 96 1.6 17.7 0.00 0.00 0.00 70 1009.5
20260508150013 7 82 0.0 17.7 0.00 0.00 0.00 70 1009.3
20260508144510 7 109 4.8 17.7 0.00 0.00 0.00 68 1009.3
20260508143007 7 124 1.6 9.7 0.00 0.00 0.00 70 1009.3
20260508141512 7 126 0.0 17.7 0.00 0.00 0.00 71 1009.2
20260508141510 7 91 0.0 17.7 0.00 0.00 0.00 71 1009.2
20260508140001 7 113 0.0 14.5 0.00 0.00 0.00 72 1009.2
20260508134623 6 91 0.0 9.7 0.00 0.00 0.00 73 1009.2
20260508133110 6 95 0.0 3.2 0.00 0.00 0.00 76 1009.2
20260508131551 5 129 0.0 0.0 0.00 0.00 0.00 83 1009.2
20260508130042 4 292 0.0 0.0 0.00 0.00 0.00 86 1009.2
20260508124541 3 288 0.0 0.0 0.00 0.00 0.00 88 1009.2
20260508123039 3 276 0.0 0.0 0.00 0.00 0.00 92 1009.1
20260508121535 1 285 0.0 0.0 0.00 0.00 0.00 94 1009.1
20260508120029 1 273 0.0 0.0 0.00 0.00 0.00 96 1009.1
20260508114527 0 270 0.0 0.0 0.00 0.00 0.00 97 1009.0